When you browse on this site, cookies collect data to enhance your experience and personalize the content and advertising you see.
Visit our Privacy Policy to learn more. By continuing to use the site, you agree to this use of cookies and data.
  • In Romania
  • List of Countries
  • For 7 days
  • Water Temperature
  • Satellite Maps
  • Weather Map
  • Weather Widgets
  • user-avatar
    Login

    Hourly Weather Kstinkino

    Today, 26 April, Friday

    Time Temperature Precipitation Wind Pressure Humidity
    00:00 +9°C° 0 mm 2 mps 752 mmHg 72%
    01:00 +8°C° 0 mm 2 mps 752 mmHg 75%
    02:00 +7°C° 0 mm 2 mps 752 mmHg 77%
    03:00 +7°C° 0 mm 2 mps 752 mmHg 78%
    04:00 +7°C° 0 mm 2 mps 752 mmHg 78%
    05:00 +7°C° 0 mm 2 mps 752 mmHg 79%
    06:00 +9°C° 0 mm 2 mps 752 mmHg 73%
    07:00 +10°C° 0 mm 2 mps 752 mmHg 66%
    08:00 +13°C° 0 mm 2 mps 752 mmHg 60%
    09:00 +15°C° 0 mm 2 mps 752 mmHg 55%
    10:00 +16°C° 0 mm 2 mps 752 mmHg 50%
    11:00 +18°C° 0 mm 2 mps 751 mmHg 45%
    12:00 +18°C° 0 mm 2 mps 751 mmHg 43%
    13:00 +19°C° 0 mm 2 mps 751 mmHg 42%
    14:00 +21°C° 0 mm 1 mps 750 mmHg 40%
    15:00 +21°C° 0 mm 1 mps 750 mmHg 41%
    16:00 +21°C° 0 mm 1 mps 749 mmHg 42%
    17:00 +20°C° 0 mm 1 mps 749 mmHg 43%
    18:00 +18°C° 0 mm 1 mps 748 mmHg 51%
    19:00 +15°C° 0 mm 2 mps 748 mmHg 58%
    20:00 +13°C° 0 mm 2 mps 748 mmHg 66%
    21:00 +12°C° 0 mm 2 mps 748 mmHg 68%
    22:00 +12°C° 0 mm 2 mps 747 mmHg 69%
    23:00 +10°C° 0 mm 2 mps 747 mmHg 71%

    Tomorrow, 27 April, Saturday

    Time Temperature Precipitation Wind Pressure Humidity
    00:00 +12°C° 0.1 mm 2 mps 747 mmHg 73%
    01:00 +12°C° 0.1 mm 2 mps 746 mmHg 75%
    02:00 +12°C° 0.1 mm 2 mps 746 mmHg 78%
    03:00 +12°C° 0 mm 2 mps 746 mmHg 79%
    04:00 +12°C° 0 mm 2 mps 745 mmHg 80%
    05:00 +12°C° 0 mm 2 mps 745 mmHg 81%
    06:00 +13°C° 0 mm 2 mps 744 mmHg 77%
    07:00 +14°C° 0 mm 2 mps 744 mmHg 72%
    08:00 +16°C° 0 mm 2 mps 744 mmHg 67%
    09:00 +16°C° 0.1 mm 2 mps 743 mmHg 64%
    10:00 +17°C° 0.1 mm 2 mps 743 mmHg 62%
    11:00 +19°C° 0.1 mm 1 mps 743 mmHg 59%
    12:00 +19°C° 0 mm 2 mps 742 mmHg 53%
    13:00 +20°C° 0 mm 2 mps 742 mmHg 46%
    14:00 +21°C° 0 mm 2 mps 741 mmHg 40%
    15:00 +19°C° 0.5 mm 3 mps 741 mmHg 52%
    16:00 +17°C° 0.5 mm 4 mps 741 mmHg 64%
    17:00 +14°C° 0.5 mm 4 mps 740 mmHg 76%
    18:00 +12°C° 0.4 mm 4 mps 741 mmHg 79%
    19:00 +11°C° 0.4 mm 4 mps 741 mmHg 81%
    20:00 +10°C° 0.4 mm 4 mps 742 mmHg 84%
    21:00 +8°C° 0.1 mm 4 mps 742 mmHg 81%
    22:00 +6°C° 0.1 mm 5 mps 743 mmHg 78%
    23:00 +5°C° 0.1 mm 5 mps 744 mmHg 76%

    Day after tomorrow, 28 April, Sunday

    Time Temperature Precipitation Wind Pressure Humidity
    00:00 +3°C° 0 mm 5 mps 744 mmHg 75%
    01:00 +1°C° 0 mm 5 mps 745 mmHg 75%
    02:00 0°C° 0 mm 5 mps 746 mmHg 75%
    03:00 -1°C° 0 mm 5 mps 746 mmHg 73%
    04:00 -2°C° 0 mm 5 mps 747 mmHg 71%
    05:00 -2°C° 0 mm 5 mps 747 mmHg 70%
    06:00 -2°C° 0 mm 5 mps 748 mmHg 64%
    07:00 -1°C° 0 mm 5 mps 748 mmHg 58%
    08:00 0°C° 0 mm 5 mps 749 mmHg 52%
    09:00 +1°C° 0 mm 5 mps 749 mmHg 48%
    10:00 +2°C° 0 mm 5 mps 749 mmHg 44%
    11:00 +3°C° 0 mm 5 mps 749 mmHg 40%
    12:00 +5°C° 0 mm 5 mps 750 mmHg 38%
    13:00 +5°C° 0 mm 5 mps 750 mmHg 36%
    14:00 +6°C° 0 mm 4 mps 750 mmHg 34%
    15:00 +6°C° 0 mm 4 mps 750 mmHg 35%
    16:00 +5°C° 0 mm 4 mps 750 mmHg 35%
    17:00 +5°C° 0 mm 4 mps 751 mmHg 36%
    18:00 +3°C° 0 mm 4 mps 751 mmHg 41%
    19:00 +2°C° 0 mm 3 mps 752 mmHg 46%
    20:00 +2°C° 0 mm 2 mps 752 mmHg 51%
    21:00 +1°C° 0 mm 2 mps 752 mmHg 54%
    22:00 -1°C° 0 mm 2 mps 753 mmHg 56%
    23:00 -2°C° 0 mm 2 mps 753 mmHg 59%

    29 April, Monday

    Time Temperature Precipitation Wind Pressure Humidity
    00:00 -2°C° 0 mm 2 mps 753 mmHg 60%
    01:00 -3°C° 0 mm 2 mps 754 mmHg 62%
    02:00 -3°C° 0 mm 2 mps 754 mmHg 64%
    03:00 -3°C° 0 mm 2 mps 754 mmHg 62%
    04:00 -3°C° 0 mm 2 mps 754 mmHg 60%
    05:00 -2°C° 0 mm 2 mps 754 mmHg 58%
    06:00 -1°C° 0 mm 2 mps 755 mmHg 51%
    07:00 +2°C° 0 mm 2 mps 755 mmHg 44%
    08:00 +3°C° 0 mm 2 mps 755 mmHg 37%
    09:00 +4°C° 0 mm 2 mps 754 mmHg 35%
    10:00 +6°C° 0 mm 2 mps 754 mmHg 33%
    11:00 +7°C° 0 mm 2 mps 754 mmHg 30%
    12:00 +7°C° 0 mm 2 mps 754 mmHg 30%
    13:00 +9°C° 0 mm 1 mps 753 mmHg 29%
    14:00 +10°C° 0 mm 1 mps 753 mmHg 28%
    15:00 +9°C° 0 mm 1 mps 752 mmHg 29%
    16:00 +9°C° 0 mm 1 mps 752 mmHg 30%
    17:00 +9°C° 0 mm 1 mps 751 mmHg 31%
    18:00 +7°C° 0 mm 1 mps 751 mmHg 37%
    19:00 +5°C° 0 mm 1 mps 751 mmHg 43%
    20:00 +3°C° 0 mm 1 mps 751 mmHg 49%
    21:00 +3°C° 0 mm 1 mps 751 mmHg 51%
    22:00 +1°C° 0 mm 2 mps 750 mmHg 54%
    23:00 +1°C° 0 mm 2 mps 750 mmHg 57%

    30 April, Tuesday

    Time Temperature Precipitation Wind Pressure Humidity
    00:00 +1°C° 0 mm 2 mps 750 mmHg 59%
    01:00 +1°C° 0 mm 2 mps 750 mmHg 60%
    02:00 +1°C° 0 mm 2 mps 750 mmHg 62%
    03:00 +1°C° 0 mm 2 mps 749 mmHg 61%
    04:00 +1°C° 0 mm 2 mps 749 mmHg 61%
    05:00 +1°C° 0 mm 2 mps 749 mmHg 60%
    06:00 +3°C° 0 mm 2 mps 748 mmHg 55%
    07:00 +5°C° 0 mm 2 mps 748 mmHg 49%
    08:00 +6°C° 0 mm 2 mps 747 mmHg 44%
    09:00 +7°C° 0 mm 2 mps 747 mmHg 40%
    10:00 +9°C° 0 mm 2 mps 746 mmHg 36%
    11:00 +10°C° 0 mm 3 mps 746 mmHg 32%
    12:00 +10°C° 0 mm 3 mps 746 mmHg 32%
    13:00 +11°C° 0 mm 3 mps 745 mmHg 33%
    14:00 +11°C° 0 mm 3 mps 745 mmHg 33%
    15:00 +10°C° 0.1 mm 3 mps 744 mmHg 39%
    16:00 +10°C° 0.1 mm 3 mps 744 mmHg 44%
    17:00 +9°C° 0.1 mm 3 mps 744 mmHg 49%
    18:00 +8°C° 0.2 mm 3 mps 744 mmHg 60%
    19:00 +5°C° 0.2 mm 3 mps 744 mmHg 70%
    20:00 +5°C° 0.2 mm 2 mps 744 mmHg 80%
    21:00 +4°C° 0.3 mm 2 mps 744 mmHg 81%
    22:00 +4°C° 0.3 mm 2 mps 744 mmHg 83%
    23:00 +4°C° 0.3 mm 2 mps 744 mmHg 84%

    1 May, Wednesday

    Time Temperature Precipitation Wind Pressure Humidity
    00:00 +3°C° 0 mm 2 mps 744 mmHg 85%
    01:00 +3°C° 0 mm 2 mps 744 mmHg 86%
    02:00 +1°C° 0 mm 3 mps 744 mmHg 88%
    03:00 0°C° 0 mm 3 mps 744 mmHg 88%
    04:00 +1°C° 0 mm 2 mps 744 mmHg 89%
    05:00 -1°C° 0 mm 2 mps 744 mmHg 90%
    06:00 +2°C° 0 mm 2 mps 744 mmHg 83%
    07:00 +3°C° 0 mm 2 mps 744 mmHg 76%
    08:00 +4°C° 0 mm 2 mps 744 mmHg 69%
    09:00 +6°C° 0 mm 2 mps 744 mmHg 61%
    10:00 +7°C° 0 mm 2 mps 744 mmHg 52%
    11:00 +8°C° 0 mm 2 mps 743 mmHg 44%
    12:00 +10°C° 0 mm 1 mps 743 mmHg 40%
    13:00 +12°C° 0 mm 1 mps 743 mmHg 37%
    14:00 +12°C° 0 mm 0 mps 742 mmHg 34%
    15:00 +11°C° 0 mm 0 mps 742 mmHg 34%
    16:00 +10°C° 0 mm 0 mps 741 mmHg 35%
    17:00 +10°C° 0 mm 0 mps 741 mmHg 36%
    18:00 +9°C° 0 mm 1 mps 740 mmHg 43%
    19:00 +7°C° 0 mm 1 mps 740 mmHg 50%
    20:00 +4°C° 0 mm 2 mps 740 mmHg 58%
    21:00 +4°C° 0 mm 2 mps 740 mmHg 63%
    22:00 +3°C° 0 mm 2 mps 739 mmHg 67%
    23:00 +3°C° 0 mm 2 mps 739 mmHg 72%
    Show more